Weather in Chagan-Uzun

Russia / Altai Republic     50°06′08″N   88°21′41″E
temp.,
°C
wind,
m/s
gust,
m/s
humid.,
%
clouds,
%
prec.,
mm/h
press.,
hPa
HPBL,
m
30 june, thu
thu3001:00+12wsw453649 0.0 100760
04:00+10ssw2237100 0.0 100629
07:00+13s1241100 0.0 1006113
10:00+18sse3629100 0.0 10041523
13:00+20sw81028100 0.0 10022821
16:00+18wsw81138100 0.0 10031803
19:00+15wsw6851100 0.0 10041006
22:00+12wsw346299 0.0 100485
1 july, fri
fri101:00+11wsw3664100 0.0 1004195
04:00+9sw237638 0.0 100440
07:00+12sw136258 0.0 1004382
10:00+16wsw4743100 0.0 10021884
13:00+18w693894 0.1 10012255
16:00+18wsw9113357 0.0 10012345
19:00+16wsw793282 0.1 10021737
22:00+10w4655100 0.4 1006117
2 july, sat
sat201:00+8wnw2266100 0.7 100739
04:00+8wsw356997 0.5 1008224
07:00+8nw457176 0.9 1009574
10:00+11nnw345146 0.3 10081493
13:00+14nnw353688 0.8 10052367
16:00+15nw563162 0.4 10042763
19:00+8nnw566871 1.4 1009519
22:00+6nnw2380100 0.1 101193
3 july, sun
sun301:00+6wnw228362 0.7 101165
04:00+4wnw228872 0.0 101018
07:00+6nw117512 0.1 1010265
10:00+11e134916 0.1 10081598
13:00+15nw152756 0.1 10043043
16:00+17nw342594 0.0 10032933
19:00+11nnw565299 0.3 1006918
22:00+7nnw33737 0.1 100855
4 july, mon
mon401:00+5n1180100 0.1 100813
04:00+5se2275100 0.0 100713
07:00+7ese2265100 0.0 1005180
10:00+12sw3543100 0.0 10031254
13:00+16sse473993 0.1 9992041
16:00+17wsw7938100 0.0 9971896
19:00+13wsw4754100 0.3 9991186
22:00+10wsw237185 0.0 99958